Change the Weather History Date:

Monday, January 13, 2014

  Actual Average (KLVN) Record (KLVN)
Temperature  
Mean Temperature 30 °F -  
Max Temperature 35 °F 21 °F 46 °F (1987)
Min Temperature 25 °F 4 °F -24 °F (1965)
Degree Days  
Heating Degree Days 35    
Moisture  
Dew Point 24 °F    
Average Humidity 76    
Maximum Humidity 87    
Minimum Humidity 63    
Precipitation  
Precipitation 0.00 in - - ()
Sea Level Pressure  
Sea Level Pressure 29.60 in    
Wind  
Wind Speed 7 mph (WSW)    
Max Wind Speed 17 mph    
Max Gust Speed 22 mph    
Visibility 10 miles    
Events Snow    
Averages and records for this station are not official NWS values.
T = Trace of Precipitation, MM = Missing Value Source: NWS Daily Summary

Daily Weather History Graph

Daily Weather History Graph

Search for Another Location

Airport or City:

Trip Planner

Search our weather history database for the weather conditions in past years. The results will help you decide how hot, cold, wet, or windy it might be!

Date:

Astronomy

Jan. 13, 2014 Rise Set
Actual Time 7:45 AM CST 4:55 PM CST
Civil Twilight 7:13 AM CST 5:28 PM CST
Nautical Twilight 6:37 AM CST 6:04 PM CST
Astronomical Twilight 6:02 AM CST 6:39 PM CST
Moon 3:12 PM CST (1/13) 5:34 AM CST (1/13)
Length of Visible Light 10h 15m
Length of Day
9h 10m
Waxing Gibbous, 95% of the Moon is Illuminated
Jan 13
Waxing Gibbous
Jan 15
Full
Jan 23
Last Quarter
Jan 30
New
Feb 6
First Quarter

Hourly Weather History & Observations

Time (CST) Temp. Windchill Dew Point Humidity Pressure Visibility Wind Dir Wind Speed Gust Speed Precip Events Conditions
12:12 AM 34.7 °F 30.6 °F 29.8 °F 82% 29.48 in 10.0 mi SSW 4.6 mph - N/A   Clear
12:32 AM 35.1 °F 31.0 °F 29.8 °F 81% 29.50 in 10.0 mi WSW 4.6 mph - N/A   Clear
12:52 AM 34.3 °F 30.2 °F 29.3 °F 82% 29.50 in 10.0 mi SW 4.6 mph - N/A   Clear
1:12 AM 33.3 °F 27.9 °F 29.1 °F 85% 29.50 in 10.0 mi SW 5.8 mph - N/A   Clear
1:32 AM 34.0 °F 29.8 °F 29.3 °F 83% 29.50 in 10.0 mi WSW 4.6 mph - N/A   Clear
1:52 AM 33.4 °F 29.1 °F 28.8 °F 83% 29.50 in 10.0 mi SW 4.6 mph - N/A   Clear
2:12 AM 32.2 °F 27.7 °F 28.4 °F 86% 29.50 in 10.0 mi SW 4.6 mph - N/A   Clear
2:32 AM 32.2 °F 26.7 °F 28.8 °F 87% 29.50 in 10.0 mi SSW 5.8 mph - N/A   Clear
2:52 AM 33.6 °F 29.4 °F 29.5 °F 85% 29.52 in 10.0 mi WSW 4.6 mph - N/A   Clear
3:12 AM 33.8 °F 29.6 °F 28.9 °F 82% 29.52 in 10.0 mi WSW 4.6 mph - N/A   Clear
3:32 AM 32.5 °F 28.1 °F 28.2 °F 84% 29.53 in 10.0 mi WSW 4.6 mph - N/A   Clear
3:52 AM 33.1 °F 27.7 °F 28.2 °F 82% 29.53 in 10.0 mi West 5.8 mph - N/A   Clear
4:12 AM 32.4 °F 26.9 °F 27.5 °F 82% 29.54 in 10.0 mi West 5.8 mph - N/A   Clear
4:32 AM 32.0 °F 26.4 °F 27.3 °F 83% 29.55 in 10.0 mi West 5.8 mph - N/A   Clear
4:52 AM 32.0 °F 25.6 °F 27.0 °F 82% 29.55 in 10.0 mi West 6.9 mph - N/A   Clear
5:12 AM 31.5 °F 24.9 °F 26.4 °F 82% 29.56 in 10.0 mi West 6.9 mph - N/A   Clear
5:32 AM 31.8 °F 21.8 °F 26.6 °F 81% 29.57 in 10.0 mi WNW 13.8 mph 19.6 mph N/A   Mostly Cloudy
5:52 AM 31.8 °F 22.3 °F 26.1 °F 79% 29.57 in 10.0 mi WNW 12.7 mph - N/A   Overcast
6:12 AM 31.5 °F 21.8 °F 25.7 °F 79% 29.58 in 10.0 mi WNW 12.7 mph - N/A   Overcast
6:32 AM 31.5 °F 22.9 °F 25.7 °F 79% 29.59 in 10.0 mi WNW 10.4 mph - N/A   Overcast
6:52 AM 31.6 °F 23.7 °F 25.7 °F 79% 29.60 in 10.0 mi West 9.2 mph - N/A   Overcast
7:12 AM 31.1 °F 22.4 °F 25.5 °F 80% 29.60 in 10.0 mi West 10.4 mph - N/A   Overcast
7:32 AM 30.7 °F 22.0 °F 24.8 °F 79% 29.61 in 10.0 mi WNW 10.4 mph - N/A   Overcast
7:52 AM 29.1 °F 21.3 °F 23.4 °F 79% 29.62 in 10.0 mi West 8.1 mph - N/A   Scattered Clouds
8:12 AM 28.4 °F 19.1 °F 23.0 °F 80% 29.63 in 10.0 mi West 10.4 mph - N/A   Clear
8:32 AM 28.2 °F 18.9 °F 22.1 °F 78% 29.63 in 10.0 mi West 10.4 mph - N/A   Clear
8:52 AM 28.2 °F 18.3 °F 21.6 °F 76% 29.65 in 10.0 mi WNW 11.5 mph - N/A   Clear
9:12 AM 28.4 °F 19.7 °F 21.2 °F 74% 29.66 in 10.0 mi WNW 9.2 mph - N/A   Clear
9:32 AM 28.9 °F 19.8 °F 20.8 °F 72% 29.66 in 10.0 mi West 10.4 mph - N/A   Clear
9:52 AM 29.3 °F 19.6 °F 20.7 °F 70% 29.67 in 10.0 mi West 11.5 mph - N/A   Clear
10:12 AM 29.8 °F 20.3 °F 20.8 °F 69% 29.67 in 10.0 mi West 11.5 mph - N/A   Clear
10:32 AM 30.0 °F 20.0 °F 20.3 °F 67% 29.67 in 10.0 mi West 12.7 mph 18.4 mph N/A   Clear
10:52 AM 29.8 °F 20.3 °F 20.3 °F 68% 29.67 in 10.0 mi West 11.5 mph - N/A   Clear
11:12 AM 29.8 °F 18.9 °F 20.5 °F 68% 29.66 in 10.0 mi West 15.0 mph - N/A   Clear
11:32 AM 30.0 °F 19.5 °F 20.3 °F 67% 29.65 in 10.0 mi West 13.8 mph 21.9 mph N/A   Clear
11:52 AM 30.0 °F 19.1 °F 18.9 °F 63% 29.65 in 10.0 mi West 15.0 mph 19.6 mph N/A   Clear
12:12 PM 30.0 °F 18.3 °F 19.0 °F 64% 29.65 in 10.0 mi West 17.3 mph - N/A   Clear
12:32 PM 30.0 °F 18.3 °F 19.2 °F 64% 29.64 in 10.0 mi West 17.3 mph 21.9 mph N/A   Clear
12:52 PM 30.2 °F 18.9 °F 20.1 °F 66% 29.64 in 10.0 mi West 16.1 mph - N/A   Clear
1:12 PM 30.4 °F 19.1 °F 20.3 °F 66% 29.64 in 10.0 mi West 16.1 mph - N/A   Clear
1:32 PM 30.6 °F 21.2 °F 21.0 °F 68% 29.63 in 10.0 mi West 11.5 mph 17.3 mph N/A   Clear
1:52 PM 30.7 °F 20.0 °F 21.2 °F 68% 29.63 in 10.0 mi WNW 15.0 mph - N/A   Clear
2:12 PM 30.7 °F 20.9 °F 20.8 °F 67% 29.63 in 10.0 mi West 12.7 mph - N/A   Clear
2:32 PM 30.9 °F 22.2 °F 21.0 °F 67% 29.64 in 10.0 mi West 10.4 mph - N/A   Clear
2:52 PM 30.9 °F 21.7 °F 20.7 °F 66% 29.65 in 10.0 mi West 11.5 mph - N/A   Clear
3:12 PM 30.9 °F 20.7 °F 21.2 °F 67% 29.65 in 10.0 mi West 13.8 mph 18.4 mph N/A   Clear
3:32 PM 30.7 °F 22.6 °F 21.2 °F 68% 29.65 in 10.0 mi West 9.2 mph - N/A   Clear
3:51 PM 30.2 °F 23.4 °F 21.9 °F 71% 29.66 in 10.0 mi West 6.9 mph - N/A   Clear
4:12 PM 30.0 °F 22.4 °F 21.6 °F 71% 29.65 in 10.0 mi West 8.1 mph - N/A   Clear
4:32 PM 29.3 °F 23.2 °F 21.7 °F 73% 29.65 in 10.0 mi WSW 5.8 mph - N/A   Clear
4:51 PM 29.1 °F 24.1 °F 21.9 °F 74% 29.64 in 10.0 mi SW 4.6 mph - N/A   Clear
5:12 PM 28.0 °F 24.2 °F 22.3 °F 79% 29.65 in 10.0 mi SW 3.5 mph - N/A   Scattered Clouds
5:32 PM 27.0 °F 20.5 °F 22.3 °F 83% 29.65 in 10.0 mi SW 5.8 mph - N/A   Scattered Clouds
5:52 PM 25.5 °F 21.3 °F 21.0 °F 83% 29.65 in 10.0 mi SW 3.5 mph - N/A   Scattered Clouds
6:12 PM 25.7 °F - 21.0 °F 82% 29.64 in 10.0 mi Calm Calm - N/A   Scattered Clouds
6:32 PM 27.1 °F - 22.1 °F 81% 29.64 in 10.0 mi Calm Calm - N/A   Overcast
6:52 PM 28.2 °F 24.4 °F 22.3 °F 78% 29.63 in 10.0 mi SSW 3.5 mph - N/A   Overcast
7:12 PM 28.4 °F 23.3 °F 23.0 °F 80% 29.64 in 10.0 mi SSW 4.6 mph - N/A   Overcast
7:32 PM 28.9 °F 23.9 °F 23.5 °F 80% 29.64 in 10.0 mi SSW 4.6 mph - N/A Snow Light Snow
7:52 PM 29.8 °F 23.9 °F 24.4 °F 80% 29.63 in 7.0 mi SSW 5.8 mph - N/A Snow Light Snow
8:12 PM 30.0 °F 25.2 °F 24.8 °F 81% 29.63 in 10.0 mi SSW 4.6 mph - N/A Snow Light Snow
8:32 PM 30.2 °F 26.7 °F 25.7 °F 83% 29.61 in 7.0 mi South 3.5 mph - N/A Snow Light Snow
8:52 PM 31.1 °F 27.7 °F 25.0 °F 78% 29.59 in 10.0 mi SSE 3.5 mph - N/A   Overcast
9:12 PM 30.9 °F 26.2 °F 25.0 °F 79% 29.58 in 10.0 mi SSE 4.6 mph - N/A   Overcast
9:32 PM 31.1 °F 26.4 °F 25.5 °F 80% 29.58 in 10.0 mi SE 4.6 mph - N/A   Overcast
9:52 PM 31.1 °F 26.4 °F 25.7 °F 80% 29.56 in 10.0 mi ESE 4.6 mph - N/A   Overcast
10:12 PM 31.1 °F 26.4 °F 25.5 °F 80% 29.55 in 10.0 mi ESE 4.6 mph - N/A   Overcast
10:32 PM 31.6 °F 27.0 °F 25.7 °F 79% 29.55 in 10.0 mi SE 4.6 mph - N/A   Overcast
10:52 PM 32.0 °F 27.5 °F 25.2 °F 76% 29.54 in 10.0 mi SE 4.6 mph - N/A   Overcast
11:12 PM 32.0 °F 27.5 °F 24.8 °F 75% 29.53 in 10.0 mi SSE 4.6 mph - N/A   Overcast
11:32 PM 32.0 °F 24.8 °F 24.6 °F 74% 29.53 in 10.0 mi SSE 8.1 mph - N/A   Mostly Cloudy
11:52 PM 32.0 °F 25.6 °F 24.4 °F 74% 29.51 in 10.0 mi SSE 6.9 mph - N/A   Overcast